Regional Weather Roundup
Issued by NWS Sterling, VA

Home | Current Version | Previous Version | Text Only | Print | Product List | Glossary Off
Versions: 1 2 3 4 5 6 7 8 9 10 11 12 13 14 15 16 17 18 19 20 21 22 23 24 25 26 27 28 29 30 31 32 33 34 35 36 37 38 39 40 41 42 43 44 45 46 47 48 49 50

544
ASUS41 KLWX 041810
RWRLWX

REGIONAL WEATHER ROUNDUP
NATIONAL WEATHER SERVICE BALTIMORE MD/WASHINGTON DC
200 PM EDT WED MAY 04 2016

Note: "FAIR" indicates few or no clouds below 12,000 feet
with no significant weather and/or obstructions to visibility.
 TC=TEMPERATURE CELSIUS

 * =Non NWS site. Station does not report precipitation (e.g. rain,
    snow, etc.), thunder, or fog.

DCZ001-MDZ009-015-VAZ040>042-051-053>054-041900-
WASHINGTON METRO

CITY           SKY/WX    TMP DP  RH WIND       PRES   REMARKS
WASHINGTON NAT CLOUDY    59  53  80 NE6       29.69F
DULLES         CLOUDY    59  52  77 NE5       29.67F
ANDREWS AFB    CLOUDY    57  53  85 VRB5      29.67F
FT BELVOIR     CLOUDY    59  52  77 CALM      29.67F
QUANTICO       CLOUDY    60  53  77 E5        29.68F
COLLEGE PARK*  CLOUDY    55  50  82 CALM      29.68F
LEESBURG*      CLOUDY    63  55  77 E6        29.68F
MANASSAS*      CLOUDY    61  55  82 E5        29.67F
GAITHERSBURG*  CLOUDY    57  50  77 CALM      29.72F

$$

MDZ006>007-011-014-041900-
BALTIMORE METRO

CITY           SKY/WX    TMP DP  RH WIND       PRES   REMARKS
BWI AIRPORT    CLOUDY    55  50  83 E9        29.68F
MD SCIENCE CTR   N/A     56  50  80 MISG      29.68F
MARTIN STATE   CLOUDY    55  54  94 NE7       29.73S
ANNAPOLIS      CLOUDY    55  52  89 NE5       29.69F FOG
FORT MEADE*    CLOUDY    55  50  82 NE6       29.71F

$$

MDZ012-015-019>023-041900-
MARYLAND EASTERN SHORE

CITY           SKY/WX    TMP DP  RH WIND       PRES   REMARKS
OCEAN CITY     CLOUDY    52  51  97 NE13      29.66S FOG
SALISBURY      CLOUDY    56  53  90 N9        29.66F FOG
CAMBRIDGE*     CLOUDY    54  52  94 N6        29.67F
EASTON*        RAIN     N/A N/A N/A NE6       29.72F

$$

MDZ017>025-041900-
SOUTHERN MARYLAND

CITY           SKY/WX    TMP DP  RH WIND       PRES   REMARKS
PATUXENT RIVER LGT RAIN  56  53  90 N8        29.68F FOG
ST INIGOES     LGT RAIN  57  55  93 VRB3      29.67S FOG
LEONARDTOWN*   CLOUDY    54  52  94 CALM      29.69F

$$

MDZ003>005-041900-
NORTH CENTRAL MARYLAND

CITY           SKY/WX    TMP DP  RH WIND       PRES   REMARKS
FREDERICK*     CLOUDY    57  54  88 CALM      29.72F
HAGERSTOWN APT CLOUDY    59  52  77 NE7       29.67F
WESTMINSTER*   CLOUDY    54  34  47 E7        29.68F

$$

MDZ501>502-041900-
WESTERN MARYLAND

CITY           SKY/WX    TMP DP  RH WIND       PRES   REMARKS
OAKLAND*       CLOUDY    46  45  93 SW3       29.69S
CUMBERLAND*    PTSUNNY   63  45  51 W7        29.70S

$$

VAZ025>031-041900-
SHENANDOAH VALLEY

CITY           SKY/WX    TMP DP  RH WIND       PRES   REMARKS
WINCHESTER*    CLOUDY    61  52  72 E5        29.66F
FRONT ROYAL*   CLOUDY    59  54  82 N3        29.64F
LURAY*         CLOUDY    59  55  88 CALM      29.66S
NEW MARKET*    CLOUDY    60  47  60 SW7       29.65S
STAUNTON*      FAIR      64  55  70 NW9       29.67F
WAYNESBORO*    MOCLDY    64  49  57 N8        29.65F

$$

WVZ021-048>050-054>055-041900-
EASTERN WEST VIRGINIA PANHANDLE

CITY           SKY/WX    TMP DP  RH WIND       PRES   REMARKS
MARTINSBURG    CLOUDY    61  53  75 E9        29.65F
PETERSBURG*    CLOUDY    59  50  72 W3        29.68S

$$

VAZ036>039-050-041900-
CENTRAL FOOTHILLS

CITY           SKY/WX    TMP DP  RH WIND       PRES   REMARKS
CHARLOTTESVILL FAIR      63  52  67 SE7       29.64F
CULPEPER*      FAIR      65  56  71 SE5       29.66F
ORANGE*        LGT RAIN  59  55  88 CALM      29.67F
GORDONSVILLE*  CLOUDY    59  57  91 CALM      29.64F
WARRENTON*     PTSUNNY   65  53  64 E6        29.66F

$$

VAZ055>057-041900-
NORTH AND CENTRAL PIEDMONT

CITY           SKY/WX    TMP DP  RH WIND       PRES   REMARKS
FREDERICKSBRG* CLOUDY    61  58  88 N3        29.66F
STAFFORD*      CLOUDY    60  54  80 E3        29.71F

$$

NCZ024-NYZ072-PAZ021-071-VAZ022-071-041900-
OTHER REGIONAL OBSERVATIONS

CITY           SKY/WX    TMP DP  RH WIND       PRES   REMARKS
NEW YORK CITY  CLOUDY    50  44  80 E8        29.78F
PHILADELPHIA   CLOUDY    53  47  79 NE10      29.71F
PITTSBURGH     CLOUDY    60  42  51 CALM      29.64F
ROANOKE        CLOUDY    65  41  41 SW13      29.68F
RICHMOND       PTSUNNY   65  56  72 SE6       29.65F
RALEIGH        MOSUNNY   70  53  54 N6        29.65F

$$

ANZ530>537-041900-
MARINE OBSERVATIONS

STATION/POSITION TIME  TEMP    WIND        PRES
                       AIR SEA DIR/SP/G
                 (UTC) (F)     (DEG/KT/KT) (MB)
THOMAS PT LIGHT  1800   53 59   20/  6/  6 1006.8F
BALT KEY BRIDGE  1700   54      60/  5/  6 1005.8F
COVE POINT       1700   53      20/  6/  9 1005.9F
LEWISETTA        1700   55 63  340/  3/  5 1005.0F
SOLOMONS ISLAND  1700   55 60   30/  6/  7   N/A
PINEY POINT      1700          330/  7/  7   N/A

$$





USA.gov is the U.S. government's official web portal to all federal, state and local government web resources and services.